Regional Weather Roundup
Issued by NWS

Home | Current Version | Previous Version | Text Only | Print | Product List | Glossary On
Versions: 1 2 3 4 5 6 7 8 9 10 11 12 13 14 15 16 17 18 19 20 21 22 23 24 25 26 27 28 29 30 31 32 33 34 35 36 37 38 39 40 41 42 43 44 45 46 47 48 49 50
000
ASUS43 KFSD 232202
RWRSD

WEATHER ROUNDUP FOR SOUTH DAKOTA
NATIONAL WEATHER SERVICE SIOUX FALLS SD
500 PM CDT MON APR 23 2018

NOTE: "FAIR" INDICATES FEW OR NO CLOUDS BELOW 12,000 FEET WITH NO
SIGNIFICANT WEATHER AND/OR OBSTRUCTIONS TO VISIBILITY.


SDZ001>005-009-010-012>017-232300-
NORTHWEST AND NORTH CENTRAL SOUTH DAKOTA

CITY           SKY/WX    TMP DP  RH WIND       PRES   REMARKS
BUFFALO          N/A     54  31  41 NE40G51   29.97F
FAITH            N/A     67  39  35 SE17      30.02F
MOBRIDGE       FAIR      72  41  32 S12       30.04F
$$

SDZ012>016-024>037-041>051-057-063-072>074-232300-
SOUTHWEST AND SOUTH CENTRAL SOUTH DAKOTA

CITY           SKY/WX    TMP DP  RH WIND       PRES   REMARKS
RAPID CTY ARPT CLOUDY    64  41  42 SE9       30.00S
PIERRE         MOSUNNY   70  40  33 SE14      30.03F
CUSTER         CLOUDY    54  35  48 SE9G17    30.04F
PHILIP         MOSUNNY   71  39  31 SE12G22   29.98F
PINE RIDGE     MOSUNNY   69  39  33 S16G23    30.00S
SPEARFISH      LGT RAIN  57  43  58 SE10G18   30.00F
WINNER         MOCLDY    71  37  28 S18       30.05F
$$

SDZ004>011-016>023-039-040-232300-
NORTHEAST SOUTH DAKOTA

CITY           SKY/WX    TMP DP  RH WIND       PRES   REMARKS
ABERDEEN       CLOUDY    71  36  27 E9        30.09F
WATERTOWN      MOSUNNY   67  35  30 VRB3      30.12F
BROOKINGS      MOSUNNY   66  37  34 CALM      30.13F
SISSETON         N/A     68  38  33 E3        30.10F
$$

SDZ017-020-022-023-036>040-048>070-232300-
SOUTHEAST SOUTH DAKOTA

CITY           SKY/WX    TMP DP  RH WIND       PRES   REMARKS
SIOUX FALLS    MOSUNNY   69  34  27 VRB6      30.11F
HURON          MOSUNNY   70  39  32 SE9       30.08F
CHAMBERLAIN    CLOUDY    69  42  36 S10G16    30.07F
MITCHELL       CLOUDY    69  40  34 MISG      30.09F
YANKTON        SUNNY     70  35  27 VRB6      30.10F
$$

ABBREVIATIONS USED IN REMARKS
   TC - TEMPERATURE IN CELSIUS
  WCI - WIND CHILL INDEX
   HX - HEAT INDEX
  VSB - VISIBILITY





USA.gov is the U.S. government's official web portal to all federal, state and local government web resources and services.